Change the Weather History Date:

Thursday, May 10, 2012

  Actual Average Record
Temperature  
Mean Temperature 43 °F 54 °F  
Max Temperature 56 °F 65 °F 88 °F (1949)
Min Temperature 30 °F 42 °F 26 °F (1999)
Degree Days  
Heating Degree Days 22 12  
Month to date heating degree days 173 131  
Since 1 July heating degree days 6155 6267  
Cooling Degree Days 0 0  
Month to date cooling degree days 0 0  
Year to date cooling degree days 2 0  
Moisture  
Dew Point 17 °F    
Average Humidity 40    
Maximum Humidity 63    
Minimum Humidity 16    
Precipitation  
Precipitation 0.00 in 0.05 in 0.53 in (1961)
Month to date precipitation 0.41 0.44  
Year to date precipitation 9.85 6.45  
Snow  
Snow 0.00 in 0.00 in T in (2000)
Month to date snowfall 0.0 0.1  
Since 1 July snowfall 36.8 44.9  
Snow Depth 0.00 in    
Sea Level Pressure  
Sea Level Pressure 30.22 in    
Wind  
Wind Speed 9 mph (WSW)    
Max Wind Speed 22 mph    
Max Gust Speed 26 mph    
Visibility 10 miles    
Events      
T = Trace of Precipitation, MM = Missing Value Source: NWS Daily Summary

Daily Weather History Graph

Daily Weather History Graph

Search for Another Location

Airport or City:

Trip Planner

Search our weather history database for the weather conditions in past years. The results will help you decide how hot, cold, wet, or windy it might be!

Date:

Astronomy

May. 10, 2012 Rise Set
Actual Time 5:18 AM PDT 8:15 PM PDT
Civil Twilight 4:42 AM PDT 8:51 PM PDT
Nautical Twilight 3:56 AM PDT 9:37 PM PDT
Astronomical Twilight 3:00 AM PDT 10:34 PM PDT
Moon 12:18 AM PDT (5/10) 9:48 AM PDT (5/10)
Length of Visible Light 16h 08m
Length of Day
14h 56m
Waning Gibbous, 72% of the Moon is Illuminated
May 10
Waning Gibbous
May 12
Last Quarter
May 20
New
May 28
First Quarter
Jun 4
Full

Hourly Weather History & Observations

Time (PDT) Temp. Windchill Dew Point Humidity Pressure Visibility Wind Dir Wind Speed Gust Speed Precip Events Conditions
12:53 AM 37.9 °F 31.5 °F 18.0 °F 45% 30.07 in 10.0 mi West 9.2 mph - N/A   Partly Cloudy
1:53 AM 36.0 °F 31.1 °F 19.0 °F 50% 30.10 in 10.0 mi WSW 5.8 mph - N/A   Partly Cloudy
2:53 AM 33.1 °F 25.5 °F 19.9 °F 59% 30.12 in 10.0 mi West 9.2 mph - N/A   Clear
3:53 AM 32.0 °F 24.2 °F 19.9 °F 61% 30.15 in 10.0 mi WSW 9.2 mph - N/A   Clear
4:53 AM 30.0 °F 21.1 °F 19.9 °F 66% 30.18 in 10.0 mi WSW 10.4 mph - N/A   Partly Cloudy
5:53 AM 32.0 °F 23.0 °F 21.0 °F 64% 30.21 in 10.0 mi West 11.5 mph - N/A   Clear
6:53 AM 37.0 °F 30.4 °F 21.0 °F 52% 30.23 in 10.0 mi WSW 9.2 mph - N/A   Clear
7:53 AM 42.1 °F 36.1 °F 21.9 °F 45% 30.26 in 10.0 mi West 10.4 mph - N/A   Clear
8:53 AM 46.0 °F 41.9 °F 21.0 °F 37% 30.26 in 10.0 mi West 8.1 mph - N/A   Partly Cloudy
9:53 AM 48.0 °F - 17.1 °F 29% 30.26 in 10.0 mi WNW 6.9 mph - N/A   Scattered Clouds
10:53 AM 48.9 °F - 17.1 °F 28% 30.26 in 10.0 mi Calm Calm - N/A   Partly Cloudy
11:53 AM 51.1 °F - 16.0 °F 25% 30.26 in 10.0 mi WSW 15.0 mph 19.6 mph N/A   Scattered Clouds
12:53 PM 53.1 °F - 15.1 °F 22% 30.26 in 10.0 mi WSW 12.7 mph 23.0 mph N/A   Scattered Clouds
1:53 PM 53.1 °F - 12.9 °F 20% 30.26 in 10.0 mi SSW 9.2 mph 24.2 mph N/A   Scattered Clouds
2:53 PM 55.0 °F - 10.9 °F 17% 30.26 in 10.0 mi WSW 12.7 mph 21.9 mph N/A   Scattered Clouds
3:53 PM 55.0 °F - 10.9 °F 17% 30.25 in 10.0 mi WSW 13.8 mph 23.0 mph N/A   Scattered Clouds
4:53 PM 55.0 °F - 10.0 °F 17% 30.24 in 10.0 mi West 13.8 mph 19.6 mph N/A   Scattered Clouds
5:53 PM 54.0 °F - 12.9 °F 20% 30.24 in 10.0 mi West 15.0 mph 20.7 mph N/A   Scattered Clouds
6:53 PM 53.1 °F - 12.9 °F 20% 30.23 in 10.0 mi West 9.2 mph - N/A   Scattered Clouds
7:53 PM 51.1 °F - 17.1 °F 26% 30.22 in 10.0 mi WSW 8.1 mph - N/A   Scattered Clouds
8:53 PM 48.0 °F - 19.0 °F 32% 30.23 in 10.0 mi SSW 5.8 mph - N/A   Scattered Clouds
9:53 PM 46.0 °F 41.9 °F 18.0 °F 33% 30.24 in 10.0 mi SW 8.1 mph - N/A   Clear
10:53 PM 45.0 °F 41.8 °F 17.1 °F 33% 30.24 in 10.0 mi SW 5.8 mph - N/A   Clear
11:53 PM 41.0 °F 39.0 °F 21.0 °F 45% 30.25 in 10.0 mi SSW 3.5 mph - N/A   Clear